Marshall, MN

9:46 AM CST on November 23, 2017 (GMT -0600)
Marshall Municipal-Ryan

Weather History for KMML - June, 2013

Change the Weather History Date:

Thursday, June 6, 2013

  Actual Average Record
Temperature  
Mean Temperature 56 °F -  
Max Temperature 60 °F 81 °F 100 °F (2011)
Min Temperature 53 °F 55 °F 37 °F (1953)
Degree Days  
Heating Degree Days 8    
Growing Degree Days 6 (Base 50)    
Moisture  
Dew Point 48 °F    
Average Humidity 72    
Maximum Humidity 88    
Minimum Humidity 59    
Precipitation  
Precipitation 0.00 in - - ()
Sea Level Pressure  
Sea Level Pressure 30.01 in    
Wind  
Wind Speed 8 mph (NNE)    
Max Wind Speed 13 mph    
Max Gust Speed -    
Visibility 10 miles    
Events      
Averages and records for this station are not official NWS values.
T = Trace of Precipitation, MM = Missing Value Source: NWS Daily Summary

Daily Weather History Graph

Daily Weather History Graph

Search for Another Location

Airport or City:

Trip Planner

Search our weather history database for the weather conditions in past years. The results will help you decide how hot, cold, wet, or windy it might be!

Date:

Astronomy

Jun. 06, 2013 Rise Set
Actual Time 5:39 AM CDT 9:04 PM CDT
Civil Twilight 5:03 AM CDT 9:41 PM CDT
Nautical Twilight 4:15 AM CDT 10:28 PM CDT
Astronomical Twilight 3:15 AM CDT 11:29 PM CDT
Moon 4:25 AM CDT (6/6) 7:24 PM CDT (6/6)
Length of Visible Light 16h 37m
Length of Day
15h 25m
Waning Crescent, 3% of the Moon is Illuminated
Jun 6
Waning Crescent
Jun 8
New
Jun 16
First Quarter
Jun 23
Full
Jun 29
Last Quarter

Hourly Weather History & Observations

Time (CDT) Temp. Dew Point Humidity Pressure Visibility Wind Dir Wind Speed Gust Speed Precip Events Conditions
12:15 AM 59.0 °F 51.8 °F 77% 29.99 in 10.0 mi NNE 6.9 mph - N/A   Overcast
12:35 AM 57.2 °F 50.0 °F 77% 29.99 in 10.0 mi NE 9.2 mph - N/A   Overcast
12:55 AM 57.2 °F 51.8 °F 82% 29.99 in 10.0 mi NE 6.9 mph - N/A   Overcast
1:15 AM 57.2 °F 51.8 °F 82% 29.99 in 10.0 mi NNE 8.1 mph - N/A   Overcast
1:35 AM 57.2 °F 51.8 °F 82% 29.99 in 10.0 mi NE 6.9 mph - N/A   Overcast
1:55 AM 57.2 °F 51.8 °F 82% 29.98 in 10.0 mi NE 8.1 mph - N/A   Overcast
2:15 AM 55.4 °F 51.8 °F 88% 29.98 in 10.0 mi NNE 6.9 mph - N/A   Mostly Cloudy
2:35 AM 55.4 °F 50.0 °F 82% 29.98 in 10.0 mi NE 6.9 mph - N/A   Overcast
2:55 AM 55.4 °F 50.0 °F 82% 29.99 in 10.0 mi NE 5.8 mph - N/A   Overcast
3:15 AM 55.4 °F 50.0 °F 82% 29.98 in 10.0 mi NE 8.1 mph - N/A   Overcast
3:35 AM 55.4 °F 50.0 °F 82% 29.98 in 10.0 mi NE 9.2 mph - N/A   Overcast
3:55 AM 53.6 °F 48.2 °F 82% 29.98 in 10.0 mi NE 8.1 mph - N/A   Overcast
4:15 AM 53.6 °F 50.0 °F 88% 29.97 in 10.0 mi NNE 9.2 mph - N/A   Overcast
4:35 AM 53.6 °F 48.2 °F 82% 29.98 in 10.0 mi NNE 8.1 mph - N/A   Overcast
4:55 AM 53.6 °F 48.2 °F 82% 29.98 in 10.0 mi NNE 9.2 mph - N/A   Overcast
5:15 AM 53.6 °F 48.2 °F 82% 29.98 in 10.0 mi NNE 9.2 mph - N/A   Overcast
5:35 AM 53.6 °F 48.2 °F 82% 29.98 in 10.0 mi NNE 10.4 mph - N/A   Overcast
5:55 AM 53.6 °F 48.2 °F 82% 29.99 in 10.0 mi NNE 10.4 mph - N/A   Overcast
6:15 AM 53.6 °F 46.4 °F 77% 29.99 in 10.0 mi NE 11.5 mph - N/A   Overcast
6:35 AM 53.6 °F 46.4 °F 77% 29.99 in 10.0 mi NNE 11.5 mph - N/A   Overcast
6:55 AM 53.6 °F 46.4 °F 77% 30.00 in 10.0 mi NNE 9.2 mph - N/A   Overcast
7:15 AM 53.6 °F 46.4 °F 77% 30.00 in 10.0 mi NNE 10.4 mph - N/A   Overcast
7:35 AM 53.6 °F 46.4 °F 77% 30.00 in 10.0 mi NNE 9.2 mph - N/A   Overcast
7:55 AM 53.6 °F 46.4 °F 77% 30.01 in 10.0 mi NNE 9.2 mph - N/A   Overcast
8:15 AM 53.6 °F 46.4 °F 77% 30.01 in 10.0 mi NNE 12.7 mph - N/A   Overcast
8:35 AM 53.6 °F 46.4 °F 77% 30.01 in 10.0 mi NE 12.7 mph - N/A   Overcast
8:55 AM 53.6 °F 48.2 °F 82% 30.02 in 10.0 mi NNE 10.4 mph - N/A   Overcast
9:15 AM 55.4 °F 48.2 °F 77% 30.01 in 10.0 mi NNE 10.4 mph - N/A   Overcast
9:35 AM 55.4 °F 46.4 °F 72% 30.02 in 10.0 mi NNE 9.2 mph - N/A   Overcast
9:55 AM 53.6 °F 46.4 °F 77% 30.02 in 10.0 mi NNE 9.2 mph - N/A   Overcast
10:15 AM 55.4 °F 46.4 °F 72% 30.02 in 10.0 mi NNE 9.2 mph - N/A   Overcast
10:35 AM 55.4 °F 46.4 °F 72% 30.02 in 10.0 mi North 6.9 mph - N/A   Overcast
10:55 AM 55.4 °F 46.4 °F 72% 30.02 in 10.0 mi North 6.9 mph - N/A   Overcast
11:15 AM 55.4 °F 46.4 °F 72% 30.02 in 10.0 mi North 8.1 mph - N/A   Overcast
11:35 AM 57.2 °F 46.4 °F 67% 30.02 in 10.0 mi NNE 6.9 mph - N/A   Overcast
11:55 AM 57.2 °F 46.4 °F 67% 30.02 in 10.0 mi North 9.2 mph - N/A   Overcast
12:15 PM 57.2 °F 46.4 °F 67% 30.02 in 10.0 mi North 8.1 mph - N/A   Overcast
12:35 PM 57.2 °F 46.4 °F 67% 30.02 in 10.0 mi North 8.1 mph - N/A   Overcast
12:55 PM 57.2 °F 46.4 °F 67% 30.02 in 10.0 mi North 6.9 mph - N/A   Overcast
1:15 PM 57.2 °F 46.4 °F 67% 30.02 in 10.0 mi North 10.4 mph - N/A   Overcast
1:35 PM 60.8 °F 46.4 °F 59% 30.01 in 10.0 mi NNW 10.4 mph - N/A   Overcast
1:55 PM 59.0 °F 46.4 °F 63% 30.01 in 10.0 mi North 9.2 mph - N/A   Overcast
2:15 PM 59.0 °F 46.4 °F 63% 30.01 in 10.0 mi North 11.5 mph - N/A   Overcast
2:35 PM 59.0 °F 46.4 °F 63% 30.01 in 10.0 mi North 10.4 mph - N/A   Overcast
2:55 PM 60.8 °F 46.4 °F 59% 30.01 in 10.0 mi North 10.4 mph - N/A   Overcast
3:15 PM 60.8 °F 46.4 °F 59% 30.01 in 10.0 mi NNW 8.1 mph - N/A   Overcast
3:35 PM 59.0 °F 46.4 °F 63% 30.01 in 10.0 mi North 6.9 mph - N/A   Overcast
3:55 PM 60.8 °F 48.2 °F 63% 30.01 in 10.0 mi North 9.2 mph - N/A   Overcast
4:15 PM 60.8 °F 46.4 °F 59% 30.00 in 10.0 mi North 11.5 mph - N/A   Overcast
4:35 PM 60.8 °F 46.4 °F 59% 30.00 in 10.0 mi North 8.1 mph - N/A   Overcast
4:55 PM 60.8 °F 48.2 °F 63% 30.01 in 10.0 mi North 9.2 mph - N/A   Overcast
5:15 PM 60.8 °F 48.2 °F 63% 30.01 in 10.0 mi NNE 10.4 mph - N/A   Overcast
5:35 PM 60.8 °F 48.2 °F 63% 30.01 in 10.0 mi NE 8.1 mph - N/A   Overcast
5:55 PM 60.8 °F 48.2 °F 63% 30.01 in 10.0 mi NE 6.9 mph - N/A   Overcast
6:15 PM 60.8 °F 46.4 °F 59% 30.01 in 10.0 mi NNE 6.9 mph - N/A   Overcast
6:35 PM 60.8 °F 48.2 °F 63% 30.01 in 10.0 mi ENE 8.1 mph - N/A   Overcast
6:55 PM 60.8 °F 48.2 °F 63% 30.01 in 10.0 mi ENE 9.2 mph - N/A   Overcast
7:15 PM 60.8 °F 48.2 °F 63% 30.01 in 10.0 mi NE 8.1 mph - N/A   Overcast
7:35 PM 60.8 °F 48.2 °F 63% 30.01 in 10.0 mi ENE 6.9 mph - N/A   Overcast
7:55 PM 59.0 °F 48.2 °F 67% 30.02 in 10.0 mi ENE 8.1 mph - N/A   Overcast
8:15 PM 59.0 °F 48.2 °F 67% 30.02 in 10.0 mi NE 8.1 mph - N/A   Overcast
8:35 PM 59.0 °F 48.2 °F 67% 30.02 in 10.0 mi NE 10.4 mph - N/A   Mostly Cloudy
8:55 PM 57.2 °F 48.2 °F 72% 30.02 in 10.0 mi ENE 9.2 mph - N/A   Overcast
9:15 PM 57.2 °F 48.2 °F 72% 30.02 in 10.0 mi ENE 10.4 mph - N/A   Overcast
9:35 PM 57.2 °F 48.2 °F 72% 30.03 in 10.0 mi ENE 6.9 mph - N/A   Overcast
9:55 PM 57.2 °F 48.2 °F 72% 30.03 in 10.0 mi ENE 5.8 mph - N/A   Overcast
10:15 PM 57.2 °F 48.2 °F 72% 30.03 in 10.0 mi ENE 5.8 mph - N/A   Overcast
10:35 PM 55.4 °F 48.2 °F 77% 30.04 in 10.0 mi ENE 6.9 mph - N/A   Overcast
10:55 PM 55.4 °F 46.4 °F 72% 30.04 in 10.0 mi NE 5.8 mph - N/A   Overcast
11:15 PM 55.4 °F 46.4 °F 72% 30.04 in 10.0 mi NE 4.6 mph - N/A   Overcast
11:35 PM 53.6 °F 46.4 °F 77% 30.04 in 10.0 mi NE 5.8 mph - N/A   Mostly Cloudy
11:55 PM 53.6 °F 46.4 °F 77% 30.04 in 10.0 mi NE 4.6 mph - N/A   Partly Cloudy